TimeEST,TemperatureF,Dew PointF,Humidity,Sea Level PressureIn,VisibilityMPH,Wind Direction,Wind SpeedMPH,Gust SpeedMPH,PrecipitationIn,Events,Conditions,WindDirDegrees,DateUTC
12:56 AM,42.1,26.1,53,29.87,-9999.0,North,9.2,-,N/A,,Overcast,350,2013-03-03 05:56:00
1:56 AM,41.0,26.1,55,29.88,-9999.0,NNW,12.7,-,N/A,,Overcast,340,2013-03-03 06:56:00
2:56 AM,39.0,26.1,60,29.86,-9999.0,NW,8.1,-,N/A,,Clear,320,2013-03-03 07:56:00
3:56 AM,39.0,28.0,65,29.86,-9999.0,WNW,9.2,-,N/A,,Clear,300,2013-03-03 08:56:00
4:56 AM,37.9,27.0,65,29.88,-9999.0,WNW,10.4,-,N/A,,Mostly Cloudy,300,2013-03-03 09:56:00
5:56 AM,36.0,27.0,70,29.88,-9999.0,NW,6.9,-,N/A,,Partly Cloudy,310,2013-03-03 10:56:00
6:56 AM,36.0,27.0,70,29.90,-9999.0,WNW,10.4,-,N/A,,Partly Cloudy,300,2013-03-03 11:56:00
7:56 AM,39.0,28.9,67,29.91,-9999.0,NW,11.5,-,N/A,,Clear,320,2013-03-03 12:56:00
8:56 AM,39.9,30.0,68,29.91,-9999.0,NNW,11.5,-,N/A,,Clear,330,2013-03-03 13:56:00
9:56 AM,41.0,26.1,55,29.91,-9999.0,NW,10.4,-,N/A,,Clear,320,2013-03-03 14:56:00
10:56 AM,42.1,25.0,51,29.91,-9999.0,NNW,6.9,-,N/A,,Scattered Clouds,340,2013-03-03 15:56:00
11:56 AM,42.1,24.1,49,29.90,-9999.0,North,10.4,-,N/A,,Mostly Cloudy,350,2013-03-03 16:56:00
12:56 PM,44.1,24.1,45,29.87,-9999.0,NNW,11.5,-,N/A,,Mostly Cloudy,330,2013-03-03 17:56:00
1:56 PM,45.0,24.1,44,29.85,-9999.0,NNW,15.0,-,N/A,,Overcast,330,2013-03-03 18:56:00
2:56 PM,44.1,27.0,51,29.84,-9999.0,North,12.7,-,N/A,,Overcast,360,2013-03-03 19:56:00
3:56 PM,46.0,25.0,44,29.84,-9999.0,NNW,10.4,-,N/A,,Partly Cloudy,330,2013-03-03 20:56:00
4:56 PM,46.0,24.1,42,29.85,-9999.0,NW,10.4,-,N/A,,Partly Cloudy,310,2013-03-03 21:56:00
5:56 PM,44.1,25.0,47,29.87,-9999.0,WNW,5.8,-,N/A,,Partly Cloudy,300,2013-03-03 22:56:00
6:56 PM,42.1,25.0,51,29.90,-9999.0,WNW,6.9,-,N/A,,Clear,290,2013-03-03 23:56:00
7:56 PM,41.0,26.1,55,29.91,-9999.0,WNW,6.9,-,N/A,,Clear,290,2013-03-04 00:56:00
8:56 PM,42.1,26.1,53,29.92,-9999.0,West,8.1,-,N/A,,Clear,270,2013-03-04 01:56:00
9:56 PM,35.1,28.0,76,29.93,-9999.0,SSW,8.1,-,N/A,,Clear,210,2013-03-04 02:56:00
10:56 PM,37.0,28.0,70,29.93,-9999.0,SW,6.9,-,N/A,,Clear,230,2013-03-04 03:56:00
11:56 PM,39.9,26.1,58,29.94,-9999.0,NW,10.4,-,N/A,,Mostly Cloudy,310,2013-03-04 04:56:00